Nenana, AK

3:56 AM AKDT on May 24, 2017 (GMT -0800)
Nenana Municipal

Weather History for PANN - August, 2014

Change the Weather History Date:

Tuesday, August 26, 2014

  Actual Average Record
Temperature  
Mean Temperature 60 °F -  
Max Temperature 66 °F 62 °F 79 °F (1989)
Min Temperature 53 °F 39 °F 35 °F (2008)
Degree Days  
Heating Degree Days 6    
Growing Degree Days 10 (Base 50)    
Moisture  
Dew Point 51 °F    
Average Humidity 85    
Maximum Humidity 96    
Minimum Humidity 63    
Precipitation  
Precipitation 0.01 in - - ()
Sea Level Pressure  
Sea Level Pressure 29.77 in    
Wind  
Wind Speed 3 mph (SW)    
Max Wind Speed 8 mph    
Max Gust Speed -    
Visibility 8 miles    
Events Rain    
Averages and records for this station are not official NWS values.
T = Trace of Precipitation, MM = Missing Value Source: NWS Daily Summary

Daily Weather History Graph

Daily Weather History Graph

Search for Another Location

Airport or City:

Trip Planner

Search our weather history database for the weather conditions in past years. The results will help you decide how hot, cold, wet, or windy it might be!

Date:

Astronomy

Aug. 26, 2014 Rise Set
Actual Time 6:19 AM AKDT 9:34 PM AKDT
Civil Twilight 5:21 AM AKDT 10:31 PM AKDT
Nautical Twilight 3:53 AM AKDT 11:56 PM AKDT
Astronomical Twilight Sun does not set Sun does not set
Moon 8:11 AM AKDT (8/26) 9:08 PM AKDT (8/26)
Length of Visible Light 17h 09m
Length of Day
15h 14m
New Moon, 1% of the Moon is Illuminated
Aug 26
New Moon
Sep 2
First Quarter
Sep 8
Full
Sep 15
Last Quarter
Sep 23
New

Hourly Weather History & Observations

Time (AKDT) Temp. Dew Point Humidity Pressure Visibility Wind Dir Wind Speed Gust Speed Precip Events Conditions
12:53 AM 51.1 °F 48.0 °F 89% 29.69 in 10.0 mi Calm Calm - N/A   Overcast
1:35 AM 51.1 °F 48.9 °F 92% 29.67 in 10.0 mi Calm Calm - N/A   Overcast
1:53 AM 52.0 °F 48.0 °F 86% 29.69 in 10.0 mi Variable 3.5 mph - N/A   Overcast
2:05 AM 52.0 °F 48.0 °F 86% 29.67 in 10.0 mi SW 4.6 mph - N/A   Overcast
2:36 AM 51.1 °F 48.0 °F 89% 29.68 in 10.0 mi SW 4.6 mph - N/A   Overcast
2:53 AM 51.1 °F 48.0 °F 89% 29.70 in 5.0 mi SW 4.6 mph - 0.00 in Rain Light Rain
3:25 AM 51.1 °F 48.9 °F 92% 29.69 in 10.0 mi Calm Calm - 0.00 in Rain Light Rain
3:53 AM 51.1 °F 48.9 °F 92% 29.71 in 10.0 mi SW 4.6 mph - 0.01 in Rain Light Rain
4:06 AM 51.1 °F 48.9 °F 92% 29.69 in 10.0 mi SW 5.8 mph - 0.00 in Rain Light Rain
4:40 AM 51.1 °F 50.0 °F 96% 29.70 in 8.0 mi WSW 3.5 mph - 0.01 in Rain Light Rain
4:53 AM 52.0 °F 50.0 °F 93% 29.72 in 9.0 mi SW 3.5 mph - 0.02 in Rain Light Rain
5:01 AM 52.0 °F 50.0 °F 93% 29.70 in 5.0 mi Variable 3.5 mph - 0.00 in Rain Light Rain
5:03 AM 52.0 °F 50.0 °F 93% 29.70 in 4.0 mi Calm Calm - 0.00 in Rain Light Rain
5:12 AM 51.1 °F 50.0 °F 96% 29.70 in 5.0 mi Variable 3.5 mph - 0.01 in Rain Light Rain
5:53 AM 51.1 °F 50.0 °F 96% 29.73 in 10.0 mi Calm Calm - 0.01 in   Overcast
6:00 AM 51.1 °F 50.0 °F 96% 29.71 in 10.0 mi WSW 3.5 mph - N/A   Overcast
6:08 AM 51.1 °F 50.0 °F 96% 29.71 in 10.0 mi Calm Calm - N/A   Overcast
7:53 AM 52.0 °F 50.0 °F 93% 29.74 in 10.0 mi Variable 3.5 mph - N/A   Overcast
8:53 AM 53.1 °F 50.0 °F 89% 29.76 in 10.0 mi Variable 3.5 mph - N/A   Overcast
9:48 AM 53.6 °F 51.8 °F 94% 29.75 in 10.0 mi Variable 3.5 mph - N/A   Overcast
9:53 AM 54.0 °F 51.1 °F 90% 29.77 in 10.0 mi WSW 4.6 mph - N/A   Overcast
10:17 AM 55.0 °F 50.0 °F 83% 29.75 in 10.0 mi WNW 3.5 mph - N/A   Overcast
10:45 AM 55.0 °F 50.0 °F 83% 29.76 in 10.0 mi Variable 3.5 mph - N/A   Overcast
10:53 AM 55.0 °F 51.1 °F 86% 29.78 in 10.0 mi WSW 3.5 mph - N/A   Overcast
11:12 AM 55.9 °F 50.0 °F 80% 29.76 in 10.0 mi WSW 4.6 mph - N/A   Overcast
11:49 AM 57.2 °F 50.0 °F 77% 29.77 in 10.0 mi WSW 6.9 mph - N/A   Overcast
11:53 AM 57.0 °F 51.1 °F 81% 29.79 in 10.0 mi WSW 8.1 mph - N/A   Overcast
12:03 PM 57.9 °F 51.1 °F 78% 29.77 in 10.0 mi Variable 4.6 mph - N/A   Overcast
12:17 PM 57.9 °F 50.0 °F 75% 29.77 in 10.0 mi SW 8.1 mph - N/A   Overcast
12:53 PM 60.1 °F 48.0 °F 64% 29.80 in 10.0 mi West 6.9 mph - N/A   Mostly Cloudy
1:09 PM 60.1 °F 50.0 °F 69% 29.78 in 10.0 mi SW 8.1 mph - N/A   Overcast
1:32 PM 59.0 °F 50.0 °F 72% 29.78 in 10.0 mi Variable 5.8 mph - N/A   Overcast
1:53 PM 57.9 °F 51.1 °F 78% 29.80 in 10.0 mi WNW 5.8 mph - 0.00 in Rain Light Rain
2:13 PM 59.0 °F 51.1 °F 75% 29.78 in 10.0 mi Variable 3.5 mph - 0.00 in   Mostly Cloudy
2:49 PM 60.8 °F 48.2 °F 63% 29.77 in 10.0 mi WNW 5.8 mph - 0.00 in   Overcast
2:53 PM 60.1 °F 50.0 °F 69% 29.79 in 10.0 mi Calm Calm - 0.00 in   Overcast
3:11 PM 61.0 °F 50.0 °F 67% 29.77 in 10.0 mi NW 3.5 mph - N/A   Overcast
3:53 PM 61.0 °F 48.9 °F 64% 29.79 in 10.0 mi Calm Calm - N/A   Scattered Clouds
4:15 PM 57.9 °F 51.1 °F 78% 29.77 in 1.8 mi Variable 3.5 mph - 0.01 in Rain Light Rain
4:27 PM 57.9 °F 52.0 °F 81% 29.77 in 3.0 mi Calm Calm - 0.06 in Rain Rain
4:53 PM 57.9 °F 53.1 °F 84% 29.79 in 6.0 mi Calm Calm - 0.08 in Rain Light Rain
5:53 PM 60.1 °F 53.1 °F 78% 29.78 in 10.0 mi NNW 4.6 mph - 0.00 in   Overcast
6:37 PM 57.9 °F 53.1 °F 84% 29.77 in 5.0 mi SSW 5.8 mph - 0.01 in Rain Rain
6:53 PM 55.9 °F 53.1 °F 90% 29.80 in 3.0 mi SSW 3.5 mph - 0.06 in Rain Light Rain
7:53 PM 55.0 °F 53.1 °F 93% 29.81 in 8.0 mi Calm Calm - 0.04 in Rain Light Rain
8:17 PM 55.0 °F 53.1 °F 93% 29.79 in 2.5 mi Calm Calm - 0.03 in Rain Rain
8:24 PM 55.0 °F 53.1 °F 93% 29.79 in 4.0 mi Calm Calm - 0.03 in Rain Light Rain
8:53 PM 55.0 °F 52.0 °F 89% 29.81 in 10.0 mi SSW 3.5 mph - 0.05 in Rain Light Rain
9:53 PM 54.0 °F 52.0 °F 93% 29.82 in 10.0 mi South 4.6 mph - 0.01 in Rain Light Rain
10:26 PM 54.0 °F 52.0 °F 93% 29.80 in 6.0 mi South 4.6 mph - 0.04 in Rain Rain
10:44 PM 54.0 °F 52.0 °F 93% 29.80 in 5.0 mi South 4.6 mph - 0.05 in Rain Light Rain
10:51 PM 53.6 °F 51.8 °F 94% 29.79 in 9.0 mi South 4.6 mph - 0.05 in Rain Light Rain
10:53 PM 54.0 °F 52.0 °F 93% 29.81 in 10.0 mi South 3.5 mph - 0.05 in Rain Light Rain
11:53 PM 53.1 °F 51.1 °F 93% 29.81 in 6.0 mi SSW 5.8 mph - 0.00 in Rain Light Rain